When you browse on this site, cookies collect data to enhance your experience and personalize the content and advertising you see.
Visit our Privacy Policy to learn more. By continuing to use the site, you agree to this use of cookies and data.
  • In Czech Republic
  • List of Countries
  • For 7 days
  • Water Temperature
  • Weather Map
  • Weather Widgets
  • user-avatar
    Login

    Hourly Weather Mordva

    Today, 7 June, Sunday

    Time Temperature Precipitation Wind Pressure Humidity
    00:00 +13°C° 0.1 mm 2 mps 756 mmHg 93%
    01:00 +13°C° 0.1 mm 2 mps 756 mmHg 93%
    02:00 +13°C° 0 mm 2 mps 756 mmHg 94%
    03:00 +13°C° 0 mm 2 mps 756 mmHg 95%
    04:00 +13°C° 0 mm 1 mps 756 mmHg 96%
    05:00 +14°C° 0 mm 2 mps 756 mmHg 94%
    06:00 +15°C° 0 mm 2 mps 756 mmHg 92%
    07:00 +15°C° 0 mm 2 mps 756 mmHg 90%
    08:00 +17°C° 0 mm 3 mps 756 mmHg 85%
    09:00 +18°C° 0 mm 3 mps 756 mmHg 80%
    10:00 +19°C° 0 mm 3 mps 756 mmHg 75%
    11:00 +20°C° 0.1 mm 3 mps 756 mmHg 74%
    12:00 +20°C° 0.1 mm 4 mps 756 mmHg 73%
    13:00 +21°C° 0.1 mm 4 mps 756 mmHg 72%
    14:00 +20°C° 1.6 mm 4 mps 756 mmHg 77%
    15:00 +19°C° 1.6 mm 5 mps 756 mmHg 82%
    16:00 +17°C° 1.6 mm 5 mps 756 mmHg 86%
    17:00 +17°C° 1.1 mm 5 mps 756 mmHg 87%
    18:00 +18°C° 1.1 mm 4 mps 756 mmHg 87%
    19:00 +18°C° 1.1 mm 4 mps 756 mmHg 88%
    20:00 +17°C° 0 mm 4 mps 756 mmHg 90%
    21:00 +16°C° 0 mm 3 mps 756 mmHg 93%
    22:00 +16°C° 0 mm 3 mps 756 mmHg 95%
    23:00 +14°C° 0.1 mm 3 mps 756 mmHg 96%

    Tomorrow, 8 June, Monday

    Time Temperature Precipitation Wind Pressure Humidity
    00:00 +14°C° 0.1 mm 3 mps 756 mmHg 97%
    01:00 +14°C° 0.1 mm 2 mps 756 mmHg 98%
    02:00 +15°C° 0 mm 2 mps 757 mmHg 98%
    03:00 +15°C° 0 mm 2 mps 757 mmHg 98%
    04:00 +15°C° 0 mm 2 mps 757 mmHg 98%
    05:00 +16°C° 0 mm 3 mps 757 mmHg 96%
    06:00 +16°C° 0 mm 3 mps 757 mmHg 95%
    07:00 +17°C° 0 mm 3 mps 757 mmHg 94%
    08:00 +17°C° 0 mm 3 mps 757 mmHg 92%
    09:00 +18°C° 0 mm 4 mps 758 mmHg 90%
    10:00 +18°C° 0 mm 4 mps 758 mmHg 88%
    11:00 +19°C° 0.1 mm 4 mps 758 mmHg 85%
    12:00 +20°C° 0.1 mm 5 mps 758 mmHg 81%
    13:00 +21°C° 0.1 mm 5 mps 758 mmHg 77%
    14:00 +21°C° 0.4 mm 5 mps 758 mmHg 77%
    15:00 +21°C° 0.4 mm 6 mps 759 mmHg 77%
    16:00 +22°C° 0.4 mm 6 mps 759 mmHg 76%
    17:00 +21°C° 0.1 mm 5 mps 759 mmHg 77%
    18:00 +21°C° 0.1 mm 5 mps 759 mmHg 79%
    19:00 +21°C° 0.1 mm 4 mps 759 mmHg 80%
    20:00 +19°C° 0 mm 3 mps 759 mmHg 82%
    21:00 +18°C° 0 mm 3 mps 759 mmHg 84%
    22:00 +16°C° 0 mm 3 mps 760 mmHg 86%
    23:00 +16°C° 0 mm 3 mps 760 mmHg 86%

    Day after tomorrow, 9 June, Tuesday

    Time Temperature Precipitation Wind Pressure Humidity
    00:00 +16°C° 0 mm 3 mps 760 mmHg 86%
    01:00 +14°C° 0 mm 3 mps 760 mmHg 86%
    02:00 +14°C° 0 mm 3 mps 761 mmHg 85%
    03:00 +14°C° 0 mm 3 mps 761 mmHg 85%
    04:00 +14°C° 0 mm 3 mps 761 mmHg 84%
    05:00 +16°C° 0 mm 3 mps 761 mmHg 83%
    06:00 +18°C° 0 mm 3 mps 761 mmHg 81%
    07:00 +19°C° 0 mm 4 mps 762 mmHg 79%
    08:00 +21°C° 0 mm 4 mps 762 mmHg 75%
    09:00 +22°C° 0 mm 4 mps 762 mmHg 71%
    10:00 +25°C° 0 mm 4 mps 762 mmHg 67%
    11:00 +26°C° 0 mm 4 mps 762 mmHg 62%
    12:00 +27°C° 0 mm 4 mps 762 mmHg 57%
    13:00 +28°C° 0 mm 4 mps 762 mmHg 51%
    14:00 +28°C° 0 mm 4 mps 762 mmHg 51%
    15:00 +28°C° 0 mm 4 mps 762 mmHg 51%
    16:00 +28°C° 0 mm 4 mps 762 mmHg 51%
    17:00 +27°C° 0 mm 3 mps 762 mmHg 56%
    18:00 +26°C° 0 mm 3 mps 762 mmHg 61%
    19:00 +26°C° 0 mm 2 mps 762 mmHg 67%
    20:00 +24°C° 0 mm 2 mps 762 mmHg 70%
    21:00 +21°C° 0 mm 2 mps 763 mmHg 73%
    22:00 +19°C° 0 mm 2 mps 763 mmHg 76%
    23:00 +20°C° 0 mm 1 mps 763 mmHg 75%

    10 June, Wednesday

    Time Temperature Precipitation Wind Pressure Humidity
    00:00 +19°C° 0 mm 1 mps 763 mmHg 74%
    01:00 +19°C° 0 mm 1 mps 763 mmHg 73%
    02:00 +18°C° 0 mm 2 mps 763 mmHg 72%
    03:00 +17°C° 0 mm 2 mps 763 mmHg 71%
    04:00 +17°C° 0 mm 2 mps 763 mmHg 70%
    05:00 +18°C° 0 mm 3 mps 763 mmHg 71%
    06:00 +19°C° 0 mm 3 mps 763 mmHg 72%
    07:00 +20°C° 0 mm 3 mps 763 mmHg 72%
    08:00 +22°C° 0 mm 3 mps 763 mmHg 70%
    09:00 +24°C° 0 mm 3 mps 763 mmHg 68%
    10:00 +26°C° 0 mm 3 mps 762 mmHg 65%
    11:00 +27°C° 0 mm 4 mps 762 mmHg 61%
    12:00 +28°C° 0 mm 4 mps 762 mmHg 57%
    13:00 +29°C° 0 mm 4 mps 762 mmHg 52%
    14:00 +29°C° 0 mm 4 mps 761 mmHg 53%
    15:00 +29°C° 0 mm 4 mps 761 mmHg 54%
    16:00 +29°C° 0 mm 4 mps 761 mmHg 55%
    17:00 +28°C° 0.3 mm 4 mps 761 mmHg 61%
    18:00 +27°C° 0.3 mm 4 mps 760 mmHg 67%
    19:00 +25°C° 0.3 mm 3 mps 760 mmHg 73%
    20:00 +24°C° 0.2 mm 3 mps 760 mmHg 77%
    21:00 +21°C° 0.2 mm 2 mps 760 mmHg 80%
    22:00 +20°C° 0.2 mm 2 mps 760 mmHg 83%
    23:00 +19°C° 0.1 mm 2 mps 760 mmHg 85%

    11 June, Thursday

    Time Temperature Precipitation Wind Pressure Humidity
    00:00 +19°C° 0.1 mm 2 mps 760 mmHg 87%
    01:00 +18°C° 0.1 mm 2 mps 760 mmHg 89%
    02:00 +18°C° 0.2 mm 3 mps 760 mmHg 89%
    03:00 +18°C° 0.2 mm 3 mps 759 mmHg 89%
    04:00 +17°C° 0.2 mm 3 mps 759 mmHg 89%
    05:00 +18°C° 0.7 mm 3 mps 759 mmHg 88%
    06:00 +19°C° 0.7 mm 2 mps 759 mmHg 88%
    07:00 +19°C° 0.7 mm 2 mps 758 mmHg 88%
    08:00 +19°C° 0.1 mm 2 mps 758 mmHg 87%
    09:00 +20°C° 0.1 mm 3 mps 758 mmHg 86%
    10:00 +20°C° 0.1 mm 4 mps 757 mmHg 85%
    11:00 +22°C° 0 mm 4 mps 757 mmHg 80%
    12:00 +23°C° 0 mm 4 mps 757 mmHg 74%
    13:00 +26°C° 0 mm 4 mps 756 mmHg 69%
    14:00 +26°C° 0.1 mm 4 mps 756 mmHg 69%
    15:00 +26°C° 0.1 mm 4 mps 755 mmHg 69%
    16:00 +27°C° 0.1 mm 4 mps 755 mmHg 69%
    17:00 +26°C° 0.4 mm 4 mps 755 mmHg 73%
    18:00 +25°C° 0.4 mm 4 mps 754 mmHg 77%
    19:00 +25°C° 0.4 mm 4 mps 754 mmHg 80%
    20:00 +22°C° 0.4 mm 4 mps 754 mmHg 82%
    21:00 +21°C° 0.4 mm 4 mps 754 mmHg 84%
    22:00 +19°C° 0.4 mm 3 mps 754 mmHg 86%
    23:00 +19°C° 0 mm 3 mps 753 mmHg 89%

    12 June, Friday

    Time Temperature Precipitation Wind Pressure Humidity
    00:00 +18°C° 0 mm 3 mps 753 mmHg 92%
    01:00 +17°C° 0 mm 3 mps 753 mmHg 94%
    02:00 +17°C° 0 mm 3 mps 753 mmHg 95%
    03:00 +17°C° 0 mm 3 mps 753 mmHg 95%
    04:00 +16°C° 0 mm 2 mps 752 mmHg 96%
    05:00 +17°C° 0 mm 2 mps 752 mmHg 94%
    06:00 +19°C° 0 mm 2 mps 752 mmHg 91%
    07:00 +20°C° 0 mm 2 mps 752 mmHg 89%
    08:00 +21°C° 0.1 mm 3 mps 752 mmHg 84%
    09:00 +24°C° 0.1 mm 3 mps 752 mmHg 79%
    10:00 +25°C° 0.1 mm 3 mps 752 mmHg 74%
    11:00 +26°C° 0.4 mm 3 mps 752 mmHg 71%
    12:00 +26°C° 0.4 mm 3 mps 752 mmHg 69%
    13:00 +27°C° 0.4 mm 4 mps 752 mmHg 67%
    14:00 +27°C° 0.7 mm 4 mps 752 mmHg 68%
    15:00 +26°C° 0.7 mm 4 mps 752 mmHg 70%
    16:00 +26°C° 0.7 mm 4 mps 751 mmHg 71%
    17:00 +25°C° 1.2 mm 4 mps 752 mmHg 77%
    18:00 +23°C° 1.2 mm 4 mps 752 mmHg 83%
    19:00 +21°C° 1.2 mm 3 mps 752 mmHg 89%
    20:00 +20°C° 0.1 mm 4 mps 752 mmHg 89%
    21:00 +19°C° 0.1 mm 4 mps 752 mmHg 90%
    22:00 +18°C° 0.1 mm 4 mps 752 mmHg 90%
    23:00 +17°C° 0 mm 4 mps 753 mmHg 89%
    Show more